User: anonymous   Login
Location: Unspecified
(0.0000°N, 0.0000°E)
Time: 00:18:03
(UTC+02:00)
Language:

Cosmos 1703 - Orbit

View from above orbital plane
View from above orbital plane
View from above satellite
View from above satellite

Ground track
Ground track

The orbit data is extracted from the following two-line orbital elements,

1 16262U 85108A   17288.66079320  .00000717  00000-0  41702-4 0  9991
2 16262  82.4745 131.6320 0010484 211.9320 148.1275 15.10493005737081
Epoch (UTC): 15 October 2017 15:51:32
Eccentricity: 0.0010484
inclination: 82.4745°
perigee height: 527 km
apogee height: 542 km
right ascension of ascending node: 131.6320°
argument of perigee: 211.9320°
revolutions per day: 15.10493005
mean anomaly at epoch: 148.1275°
orbit number at epoch: 73708

The dashed part of the orbit path shows where the satellite is in the earth's shadow,  

DLR